Wind_Speed
16 16 16 17 17 17 18 20 23 25 27 28 28 28 28 28 27 26 25 24 22 20 17 15 14 13 14 15 15 16 16 15 14 12 12 12 12 12 11 10 8 6 3 2 5 7 7 4 3 3 3 5 5 4 3 3 4 4 4 4 5 5
16 16 17 18 19 19 21 23 25 26 27 27 27 27 28 27 26 26 25 23 21 18 16 15 14 14 14 15 16 17 17 16 14 13 13 13 13 13 13 12 9 7 3 1 4 7 7 6 4 5 5 6 7 5 4 4 5 6 6 6 5 6
18 18 19 20 21 22 23 24 25 26 26 26 25 26 27 27 27 26 24 22 20 17 15 14 14 15 15 15 16 17 17 16 15 14 14 13 14 14 14 12 10 8 4 1 3 6 7 7 6 6 6 7 7 6 6 6 7 8 8 8 7 7
20 20 21 22 23 24 25 25 25 25 25 23 24 25 26 27 27 25 23 21 18 15 15 15 15 15 15 16 17 17 17 17 17 16 15 14 15 15 14 12 10 9 5 1 3 6 7 7 7 7 7 7 7 7 7 7 9 9 9 9 9 8
21 22 23 24 26 26 26 25 25 24 23 22 23 24 25 26 26 24 22 20 17 15 15 15 15 16 16 17 17 17 16 17 18 17 16 15 16 15 13 12 11 9 5 2 2 5 6 7 8 8 7 7 8 8 7 7 9 10 10 10 8 8
23 25 26 28 29 28 27 25 23 23 23 23 23 24 25 25 24 24 21 19 18 16 15 15 15 16 17 18 18 17 16 16 17 18 17 16 16 15 13 12 11 9 5 2 2 6 6 7 7 8 8 8 8 9 8 7 8 10 11 11 8 7
26 28 30 31 31 29 27 24 23 24 24 24 24 25 25 23 23 22 20 19 20 17 15 16 16 15 16 17 18 17 16 15 16 16 16 15 15 15 13 12 11 9 6 1 2 6 5 6 8 8 8 8 7 7 9 8 8 9 11 13 12 9
28 30 31 32 32 30 26 25 26 25 24 24 25 25 25 24 23 22 21 20 19 18 17 16 16 15 15 16 17 17 16 14 14 15 15 15 15 15 13 12 10 9 7 1 4 6 5 6 8 8 8 8 7 7 8 9 9 9 10 12 14 12
27 30 31 31 31 29 26 28 28 26 25 25 24 25 25 24 23 22 22 22 19 18 18 17 16 14 14 15 16 16 15 14 14 14 15 16 15 14 12 11 11 10 7 3 4 6 6 7 8 8 8 8 7 7 7 7 8 9 8 8 10 10
27 27 29 30 31 28 27 29 29 26 25 25 24 23 24 23 22 22 23 22 20 18 18 18 16 14 14 14 14 15 14 14 15 15 15 16 14 13 12 11 11 11 8 5 5 6 6 7 8 8 8 8 7 6 6 6 7 7 7 6 9 11
28 27 29 30 31 30 29 28 27 25 25 25 24 22 22 22 21 22 22 21 20 18 17 18 16 15 14 13 13 13 13 14 15 15 15 15 14 13 12 11 11 12 9 6 6 6 6 6 8 8 8 8 7 7 7 6 6 7 7 7 10 12
27 27 28 29 29 29 29 28 26 25 23 23 22 22 21 22 21 21 21 20 19 18 17 17 17 15 13 13 14 14 13 13 14 14 14 14 14 13 12 11 12 12 9 7 7 7 6 6 8 8 7 7 7 7 8 7 6 7 8 9 10 11
29 28 28 30 29 27 27 27 26 24 23 22 22 22 22 22 22 22 20 18 18 17 17 17 18 16 14 14 15 15 15 15 16 15 14 15 15 14 13 12 13 12 10 8 7 7 7 7 7 7 7 6 7 7 8 7 7 7 8 9 9 9
30 30 31 33 32 30 28 27 26 23 21 22 23 23 22 21 22 22 20 18 18 18 17 18 18 16 15 15 15 16 16 17 17 16 14 15 15 14 13 13 13 12 11 9 8 8 8 7 8 8 6 6 7 7 7 7 7 6 6 6 6 7
29 31 32 32 31 31 28 26 26 23 21 22 23 22 22 21 21 21 19 18 19 18 18 19 18 16 15 14 15 15 16 16 16 15 15 16 15 14 14 13 13 12 11 10 9 9 9 7 8 7 7 7 7 8 8 7 6 5 4 5 5 6
24 26 30 29 26 25 23 23 25 24 22 22 22 21 20 20 21 21 19 18 19 18 18 19 18 17 15 14 14 15 16 16 16 15 15 16 14 13 14 13 13 12 11 10 10 10 9 8 7 7 8 8 8 8 8 6 6 5 4 5 6 6
23 22 23 26 27 25 22 23 24 23 22 21 21 21 19 18 20 20 19 19 19 18 18 19 19 17 16 15 15 15 15 16 16 14 14 15 13 13 14 13 12 12 11 11 11 11 10 9 8 8 9 8 8 8 7 6 5 5 5 6 6 6
26 22 20 23 25 23 22 21 21 20 19 21 23 22 20 19 19 19 19 18 17 17 17 18 18 18 17 17 16 15 16 17 17 15 15 14 13 14 14 13 12 12 12 12 12 11 10 10 10 11 10 9 8 8 7 6 5 5 5 5 6 5
27 24 22 22 21 19 20 20 20 19 18 20 22 21 21 20 20 19 20 19 17 16 17 17 17 18 18 18 17 16 17 17 17 16 16 14 13 14 14 12 12 13 13 13 12 11 12 11 12 12 11 10 9 8 7 6 6 5 4 5 5 4
28 24 23 22 22 21 19 18 18 17 15 18 20 20 21 20 20 20 20 19 18 16 17 17 17 18 19 18 16 16 17 17 16 16 17 15 14 14 14 12 13 14 14 13 12 12 13 13 13 13 11 10 9 8 7 7 6 5 4 4 4 4
30 25 23 21 18 18 16 15 16 16 16 17 18 19 20 20 21 20 19 18 17 15 15 16 16 17 18 17 16 15 16 17 17 16 17 17 16 15 15 14 15 15 15 14 13 13 13 13 13 13 11 10 9 8 7 7 6 5 5 4 4 5
29 26 26 22 17 18 17 15 16 18 18 19 19 18 19 21 22 20 19 18 16 14 13 14 15 16 16 16 15 16 16 17 17 17 17 17 16 15 15 16 16 15 14 14 14 13 13 13 14 13 12 11 9 8 8 8 7 6 5 4 4 5
28 26 26 26 24 24 20 15 15 15 16 17 19 19 19 20 20 20 19 18 17 15 14 14 15 16 15 15 15 16 17 18 18 18 19 18 16 15 16 17 17 15 14 14 14 13 13 13 14 14 13 11 10 9 9 8 8 6 5 5 4 5
28 26 26 26 25 23 19 14 11 10 12 14 15 16 18 19 20 20 19 18 18 17 16 16 16 16 15 16 16 16 17 19 20 19 19 19 17 17 18 18 16 15 14 14 14 13 13 14 15 14 13 12 11 10 9 8 8 6 6 6 5 6
28 26 26 25 23 21 19 16 12 10 11 12 13 15 16 17 19 20 19 19 18 18 18 18 18 17 16 17 18 18 18 20 20 19 19 20 20 20 20 18 17 16 15 15 14 14 15 15 15 14 13 12 12 11 10 9 9 7 6 6 6 7
27 26 26 26 25 23 22 20 17 14 12 12 14 15 16 16 17 19 20 19 18 18 19 20 20 19 18 19 19 19 19 20 20 19 19 19 21 21 21 19 17 17 16 15 15 16 16 16 16 15 14 13 13 12 11 10 9 9 8 8 8 8
25 24 23 24 25 24 23 21 18 15 15 14 14 15 16 17 18 19 20 20 20 20 21 21 21 20 20 20 19 19 20 21 20 19 18 20 21 21 20 18 18 18 17 17 17 17 16 16 16 16 15 14 14 13 12 10 10 10 10 10 10 10
22 22 21 22 22 22 23 21 18 16 16 16 15 14 15 16 18 20 21 22 23 23 23 23 22 22 22 21 20 19 20 20 20 19 19 21 21 20 19 19 20 20 19 19 19 18 17 17 17 16 15 14 14 13 12 11 11 11 11 11 12 12
20 19 18 19 20 20 20 19 17 15 16 16 16 15 15 16 18 20 21 23 24 25 25 24 24 24 24 23 21 20 20 20 20 20 21 22 22 20 19 21 22 21 20 20 19 18 18 17 17 16 15 15 14 14 14 13 12 12 12 12 13 13
20 18 17 17 17 18 19 19 17 15 15 16 17 18 18 17 18 20 22 23 24 26 26 25 24 25 24 24 22 21 20 20 20 22 23 23 22 21 21 22 23 22 21 20 19 19 18 17 17 17 16 16 16 16 15 13 13 12 12 12 13 13
22 21 19 18 18 18 18 19 17 16 16 17 19 20 21 21 20 20 22 23 25 26 26 25 25 26 26 25 24 22 21 20 21 23 23 24 23 23 23 23 23 23 22 21 19 19 18 18 18 18 17 17 16 16 15 14 13 13 13 13 12 13
25 25 22 21 20 19 19 19 19 18 18 18 19 21 22 23 23 22 23 24 25 25 25 26 27 27 27 27 25 24 22 21 22 24 24 24 24 25 24 24 24 24 23 21 20 20 20 19 19 18 18 17 16 16 15 14 14 14 14 14 13 13
28 28 25 22 21 21 20 20 22 22 21 20 20 20 22 24 24 24 24 25 26 27 26 26 28 28 28 28 27 25 24 23 23 25 24 25 25 25 25 25 25 25 23 22 21 21 21 20 19 19 18 17 17 17 16 15 15 15 15 15 14 14
30 29 27 24 23 24 25 25 25 23 21 21 19 20 23 24 24 24 25 26 27 28 27 26 27 28 28 29 27 25 25 24 24 25 25 25 26 26 26 26 26 25 24 23 22 21 21 20 19 19 19 18 19 18 17 16 16 16 16 15 15 15
28 27 26 25 23 25 29 30 26 22 21 20 19 20 22 24 26 26 25 24 24 24 25 25 26 27 27 28 27 24 23 23 24 25 25 26 27 27 26 26 26 26 25 24 22 21 21 20 20 19 19 19 19 19 18 18 18 18 17 16 16 16
26 25 24 24 24 26 30 31 27 23 23 22 21 21 20 23 26 26 24 24 23 21 22 23 25 25 25 26 26 24 23 25 27 27 26 27 27 27 26 26 27 26 25 24 23 22 21 21 20 20 20 20 20 20 20 19 19 19 18 17 17 18
25 24 24 24 26 28 30 30 28 26 26 26 24 22 21 23 24 25 24 23 22 21 20 21 22 23 23 24 25 24 24 27 29 29 28 29 29 27 26 27 27 27 25 24 22 21 21 21 20 20 20 20 21 21 20 20 20 19 19 18 18 18
Wind_Direction
255 259 259 259 261 263 266 268 269 271 273 276 277 278 279 280 282 284 285 283 282 281 280 278 277 276 279 282 286 288 288 288 285 282 278 273 271 274 276 279 280 275 288 286 256 265 281 294 297 292 269 245 244 245 255 287 290 274 276 280 274 262
258 261 261 260 262 264 266 267 269 271 273 275 277 277 277 279 281 282 280 278 278 279 275 272 272 274 277 281 284 286 286 284 282 276 272 268 268 272 275 281 284 282 304 306 249 263 274 275 273 272 264 254 252 245 250 278 282 274 272 274 278 279
255 256 257 258 259 261 264 266 268 271 273 275 275 275 276 278 279 278 274 273 275 274 269 266 268 272 276 280 283 284 284 282 278 273 268 265 266 270 275 283 285 287 309 343 259 267 266 266 264 263 269 274 268 250 248 269 278 275 268 267 268 268
249 252 254 255 257 259 262 266 269 271 272 274 274 275 276 278 277 273 270 269 271 268 262 262 265 271 276 279 281 282 282 281 277 271 265 263 265 268 275 282 283 288 311 8 267 262 260 264 264 265 273 281 280 264 256 270 279 277 270 266 270 271
247 252 253 253 255 258 262 266 270 271 272 273 274 275 277 278 273 270 266 265 267 261 254 259 263 271 277 280 280 279 280 280 276 269 263 262 264 269 275 278 280 290 312 6 257 247 252 264 268 273 277 279 280 278 276 276 275 276 271 263 269 278
245 247 248 249 251 256 260 265 267 268 269 269 270 272 275 276 271 268 262 261 267 257 247 254 260 269 277 280 279 277 278 279 275 267 262 262 265 271 274 276 282 292 308 346 243 236 245 267 275 277 278 276 277 284 289 285 277 275 271 259 259 277
242 244 246 248 250 254 259 262 261 261 262 263 265 270 273 272 269 265 257 263 270 256 242 247 255 267 275 279 278 276 277 278 271 261 260 263 267 272 275 279 286 294 302 324 220 231 243 268 275 275 275 273 275 288 293 292 290 284 276 258 251 268
242 245 248 250 254 259 262 260 259 257 257 260 264 268 269 267 263 257 255 264 268 254 242 243 251 262 271 277 279 278 276 272 264 257 261 268 270 274 278 283 289 292 291 256 201 227 245 264 270 273 275 277 282 293 295 297 300 298 290 260 243 254
250 252 253 255 260 264 261 258 258 257 259 261 262 264 265 263 257 251 254 259 259 251 245 245 248 256 266 274 278 278 272 261 256 258 266 272 273 276 279 284 288 284 275 233 201 223 242 259 268 273 277 282 287 293 293 295 300 305 304 265 237 243
267 269 265 265 270 267 257 255 255 256 260 261 258 259 261 260 254 250 254 256 254 249 245 248 250 253 262 270 275 277 269 253 250 258 266 270 273 276 278 282 281 273 264 230 207 223 238 257 268 269 271 276 282 287 287 288 294 301 300 265 241 247
271 274 268 270 276 272 261 255 253 254 256 256 254 255 257 257 253 250 253 253 250 247 244 248 252 253 259 267 271 274 268 250 247 257 264 267 271 274 275 275 269 264 258 229 216 230 238 253 262 261 265 271 275 276 275 283 290 287 283 265 254 256
270 271 267 271 278 277 268 257 250 249 249 250 251 250 250 249 247 247 250 247 243 243 243 247 251 253 258 265 267 267 264 252 250 258 263 267 270 271 269 264 260 259 253 233 230 238 239 246 253 253 258 266 270 268 264 273 282 277 275 271 266 264
272 271 268 269 274 276 271 259 251 248 245 247 248 246 246 245 246 247 247 241 237 239 242 247 250 252 256 261 262 261 260 255 252 256 263 267 268 267 263 258 256 254 248 240 243 248 244 239 240 244 251 259 261 260 257 264 274 275 278 278 274 271
270 267 265 265 269 275 272 260 255 252 247 245 245 245 246 246 246 247 245 239 237 238 242 246 248 251 255 256 256 255 256 255 249 249 259 263 263 263 260 257 254 249 246 246 249 252 247 233 229 237 249 256 251 248 254 265 273 276 279 280 276 274
266 261 263 265 270 277 272 259 255 250 241 241 243 245 246 244 244 246 246 242 240 239 242 245 247 249 252 252 252 250 252 251 241 241 254 258 259 261 259 257 251 247 247 249 249 249 247 231 221 228 241 246 242 241 251 262 265 264 270 275 274 277
278 269 266 266 272 280 271 257 253 244 235 237 240 241 240 239 240 242 243 244 244 244 247 249 250 251 250 249 249 246 247 243 231 236 253 256 256 258 256 253 248 246 248 249 249 247 244 232 218 222 229 235 237 237 243 251 253 251 262 271 272 278
290 288 278 270 272 278 268 256 251 244 237 235 234 235 236 239 237 235 239 244 245 246 250 251 252 253 251 247 244 243 242 234 225 234 250 253 253 253 249 246 243 244 247 247 247 244 239 232 223 224 224 225 229 232 238 245 247 249 259 266 270 277
277 286 291 287 282 277 266 255 246 242 242 236 232 232 235 241 238 235 241 244 244 246 249 250 250 251 249 244 240 240 237 229 225 232 243 249 248 245 242 240 238 241 244 244 243 239 234 227 224 228 228 225 225 229 238 243 245 248 254 262 270 279
273 279 284 292 301 294 272 257 243 242 244 235 231 229 232 239 239 238 242 244 246 249 251 250 248 248 245 239 236 239 236 231 231 234 238 245 245 239 238 237 234 236 241 241 239 234 230 225 226 231 232 227 225 230 238 240 243 245 251 263 271 280
284 287 283 287 304 307 283 260 248 246 241 229 228 230 231 236 239 237 238 241 244 248 252 250 245 244 240 234 233 236 235 234 237 236 236 242 244 242 242 236 231 234 237 236 232 230 227 224 226 230 231 229 226 230 237 238 239 237 242 257 267 273
290 292 292 291 303 312 291 264 254 253 248 234 229 230 228 230 235 236 235 235 238 243 248 244 239 240 237 233 232 232 232 235 239 240 240 243 244 243 244 237 231 233 234 230 226 226 225 224 226 228 229 230 228 230 237 237 234 230 232 245 262 267
290 292 294 291 297 314 305 282 267 260 254 241 233 233 231 232 236 238 239 236 236 238 238 234 233 235 236 235 233 231 231 234 239 242 241 243 243 241 242 239 235 234 233 229 225 224 224 224 227 229 230 231 229 230 233 234 232 228 229 238 248 251
288 290 291 289 292 304 304 298 284 263 253 244 240 240 237 237 239 240 241 238 235 232 228 228 229 229 233 235 232 231 233 233 236 237 236 239 240 239 241 240 237 235 233 231 226 223 224 226 229 230 229 231 231 231 232 232 231 229 234 239 234 232
286 286 287 288 294 298 293 300 302 272 256 249 243 241 238 238 240 238 236 233 229 223 220 223 225 227 231 233 231 232 234 232 233 234 235 237 237 235 238 239 240 239 236 234 230 226 226 228 230 231 230 232 234 234 233 230 227 230 241 243 238 229
284 284 283 284 291 293 285 289 301 293 276 259 245 240 234 230 232 232 229 225 221 217 217 219 223 227 229 231 232 234 235 234 233 233 234 236 235 234 236 238 240 241 239 236 233 229 226 227 230 231 232 234 237 235 231 227 226 232 238 240 242 234
282 284 283 282 285 287 284 286 292 291 286 272 255 247 240 229 222 223 223 220 216 215 216 218 222 225 227 230 234 237 239 239 238 236 233 232 233 235 236 236 239 242 241 235 233 230 227 226 228 230 232 235 237 236 231 226 228 231 228 231 238 235
283 286 286 285 285 284 282 288 295 292 285 274 259 253 250 241 228 224 224 222 220 219 217 218 220 222 225 230 234 238 241 243 243 240 232 227 229 233 236 238 239 241 240 234 232 231 227 225 227 229 232 233 235 235 230 225 228 229 225 230 237 233
286 288 289 287 286 284 281 285 294 297 291 279 266 257 253 250 241 233 229 228 226 225 223 221 219 220 222 226 230 234 239 242 243 240 230 224 227 231 233 237 239 239 238 233 232 233 228 225 226 229 230 231 232 232 228 225 226 227 225 230 236 236
291 292 292 287 284 281 280 281 284 287 286 278 269 261 252 249 246 239 235 232 230 228 227 225 222 220 221 223 226 230 235 238 239 237 231 225 227 230 230 233 237 237 236 235 233 233 230 227 227 229 228 228 229 228 227 223 223 226 226 227 230 234
290 290 287 282 277 273 271 273 273 272 271 266 261 258 251 246 244 243 240 237 235 232 231 231 228 224 222 224 226 228 232 234 233 233 231 227 227 229 230 232 234 235 235 234 233 232 232 231 230 229 227 227 228 228 227 224 221 224 226 224 226 232
286 283 277 272 269 265 263 265 267 267 264 258 254 252 248 244 242 244 244 242 240 239 238 238 235 230 226 225 226 226 229 231 230 229 228 227 226 226 228 231 233 234 233 232 232 232 232 233 233 231 228 229 231 231 229 225 219 219 219 216 222 231
280 276 271 267 264 259 255 255 259 261 258 254 251 246 242 240 239 241 244 244 244 243 241 241 241 237 231 227 226 225 226 228 227 226 226 226 224 224 227 230 231 232 231 231 231 232 232 233 234 232 231 232 234 235 233 228 221 216 214 212 216 224
275 272 270 268 262 256 249 244 246 249 250 248 247 243 239 238 238 240 240 242 245 244 238 236 242 242 235 229 227 225 225 225 224 224 225 225 223 223 226 228 228 229 230 229 229 231 232 233 233 233 232 233 235 236 236 231 222 214 212 213 215 218
272 271 273 273 267 259 251 244 242 244 247 247 246 245 241 237 237 237 239 242 245 245 237 233 239 243 240 233 229 228 228 226 224 223 224 226 225 225 226 227 228 228 229 229 229 230 233 233 233 234 233 233 234 235 235 231 223 216 215 216 216 218
270 271 275 275 271 266 258 254 254 250 247 248 249 250 248 245 241 236 236 240 240 241 239 237 238 240 239 235 231 230 230 229 226 223 224 227 226 226 227 228 229 229 228 229 229 230 233 234 234 236 236 235 235 235 235 232 226 224 222 219 218 221
270 274 279 277 273 270 261 258 257 250 246 250 250 249 245 245 244 235 231 231 229 233 238 240 238 233 231 233 233 230 229 231 230 227 225 225 225 226 228 229 230 230 229 229 230 231 233 235 235 237 239 238 237 237 236 234 231 229 226 221 221 223
272 275 280 278 276 274 261 252 249 243 245 251 248 241 231 231 235 230 224 221 221 229 238 237 233 230 231 235 235 232 230 232 233 230 226 222 221 225 228 230 231 231 231 231 231 231 233 235 236 238 240 241 240 239 238 236 233 230 227 225 223 224
Height
5833 5834 5835 5835 5836 5837 5838 5838 5839 5839 5839 5839 5838 5838 5838 5837 5836 5836 5835 5834 5834 5834 5834 5834 5834 5834 5834 5834 5834 5833 5833 5832 5831 5830 5829 5829 5829 5829 5830 5831 5832 5833 5834 5833 5831 5829 5828 5829 5830 5829 5829 5828 5828 5829 5829 5828 5828 5828 5828 5828 5828 5827
5832 5832 5833 5833 5834 5835 5836 5836 5836 5837 5837 5836 5836 5836 5835 5835 5835 5834 5834 5833 5832 5833 5833 5833 5833 5833 5833 5833 5833 5832 5832 5831 5830 5829 5828 5828 5828 5828 5829 5830 5831 5832 5833 5833 5831 5829 5828 5828 5829 5829 5828 5828 5828 5829 5828 5828 5827 5827 5827 5827 5827 5827
5829 5830 5831 5832 5832 5833 5833 5834 5834 5834 5834 5834 5834 5834 5833 5833 5832 5832 5832 5831 5831 5831 5832 5832 5832 5832 5831 5832 5832 5831 5831 5830 5830 5828 5827 5826 5826 5827 5828 5829 5829 5831 5833 5833 5831 5829 5828 5828 5828 5828 5827 5827 5827 5828 5827 5827 5826 5826 5826 5826 5826 5826
5827 5828 5829 5830 5830 5831 5831 5831 5832 5832 5832 5832 5832 5831 5831 5831 5830 5830 5830 5830 5830 5830 5830 5830 5831 5831 5830 5831 5831 5831 5830 5830 5829 5828 5826 5825 5825 5826 5827 5827 5828 5829 5831 5831 5830 5829 5828 5827 5827 5827 5827 5827 5826 5827 5827 5826 5826 5826 5826 5826 5825 5825
5825 5826 5827 5827 5827 5828 5829 5829 5830 5830 5830 5830 5829 5829 5828 5828 5828 5828 5829 5828 5828 5828 5828 5829 5829 5830 5830 5830 5830 5830 5829 5829 5828 5827 5826 5825 5825 5825 5826 5826 5826 5827 5829 5830 5829 5829 5828 5827 5827 5826 5826 5826 5825 5825 5825 5825 5825 5825 5825 5825 5824 5824
5823 5823 5823 5823 5823 5824 5825 5826 5827 5827 5827 5826 5826 5826 5826 5826 5826 5826 5827 5827 5827 5827 5827 5828 5828 5828 5829 5829 5829 5829 5828 5828 5827 5825 5825 5825 5824 5825 5825 5825 5825 5826 5827 5829 5828 5828 5828 5827 5826 5825 5825 5825 5825 5824 5824 5824 5824 5824 5824 5824 5823 5823
5819 5819 5819 5819 5819 5821 5822 5823 5823 5822 5822 5823 5823 5823 5824 5824 5824 5824 5825 5825 5825 5825 5826 5826 5827 5827 5827 5827 5828 5827 5827 5826 5825 5824 5824 5824 5824 5824 5824 5824 5824 5825 5826 5827 5828 5827 5827 5826 5825 5825 5824 5824 5824 5824 5823 5823 5824 5823 5823 5822 5822 5822
5815 5815 5816 5817 5818 5819 5820 5821 5820 5819 5819 5819 5820 5821 5822 5822 5822 5822 5823 5823 5824 5824 5824 5825 5826 5826 5826 5826 5826 5826 5825 5825 5824 5823 5823 5824 5824 5824 5824 5824 5824 5823 5824 5826 5827 5826 5826 5825 5824 5824 5823 5823 5823 5823 5823 5822 5822 5822 5822 5821 5821 5821
5813 5813 5814 5816 5817 5818 5818 5817 5817 5817 5817 5817 5818 5819 5819 5819 5819 5820 5820 5821 5821 5822 5823 5824 5824 5824 5824 5824 5824 5824 5824 5823 5823 5822 5822 5823 5823 5824 5823 5823 5823 5822 5823 5825 5826 5825 5825 5824 5824 5824 5823 5822 5822 5823 5822 5822 5822 5821 5821 5820 5820 5820
5813 5814 5814 5815 5815 5815 5814 5813 5813 5815 5815 5815 5815 5816 5816 5816 5817 5818 5818 5818 5819 5820 5821 5822 5823 5823 5823 5823 5823 5823 5822 5822 5821 5821 5821 5822 5822 5823 5823 5823 5822 5821 5821 5824 5825 5824 5824 5824 5823 5823 5822 5822 5822 5822 5822 5821 5821 5821 5820 5820 5819 5819
5812 5813 5813 5813 5813 5813 5811 5810 5811 5813 5813 5813 5812 5813 5814 5814 5815 5815 5815 5816 5816 5817 5819 5820 5821 5821 5821 5821 5822 5821 5821 5820 5820 5820 5821 5821 5821 5822 5822 5822 5821 5820 5821 5823 5823 5823 5823 5823 5823 5823 5822 5822 5821 5821 5821 5821 5821 5820 5820 5819 5819 5818
5809 5810 5810 5811 5810 5809 5808 5808 5810 5810 5809 5810 5810 5811 5811 5812 5812 5813 5813 5813 5814 5815 5816 5817 5819 5819 5820 5820 5820 5820 5820 5819 5819 5820 5820 5820 5821 5821 5822 5821 5820 5819 5820 5821 5822 5821 5822 5822 5822 5822 5822 5822 5821 5821 5821 5821 5820 5820 5819 5819 5818 5818
5805 5806 5807 5807 5806 5805 5805 5806 5807 5806 5806 5807 5808 5808 5809 5809 5809 5810 5811 5811 5812 5813 5814 5815 5816 5817 5818 5818 5818 5818 5819 5818 5818 5819 5819 5820 5820 5820 5821 5820 5819 5819 5819 5820 5820 5820 5821 5821 5821 5821 5821 5821 5821 5820 5820 5820 5820 5819 5819 5818 5818 5817
5801 5802 5802 5802 5802 5803 5803 5804 5804 5805 5804 5805 5806 5806 5806 5807 5807 5808 5809 5810 5811 5812 5812 5813 5814 5815 5815 5815 5816 5816 5817 5817 5817 5818 5819 5819 5819 5819 5819 5819 5818 5818 5818 5819 5819 5819 5819 5820 5821 5820 5820 5820 5820 5820 5819 5819 5819 5819 5818 5817 5817 5816
5797 5798 5798 5799 5800 5801 5801 5801 5801 5802 5801 5802 5803 5804 5804 5804 5805 5806 5807 5808 5809 5810 5811 5811 5812 5812 5813 5813 5814 5814 5815 5815 5816 5817 5817 5817 5818 5818 5818 5818 5817 5817 5818 5818 5818 5818 5818 5819 5819 5819 5819 5819 5819 5819 5819 5819 5818 5818 5818 5817 5816 5816
5796 5797 5797 5797 5797 5797 5797 5798 5797 5798 5798 5800 5801 5802 5802 5802 5803 5804 5805 5807 5808 5809 5809 5810 5810 5810 5811 5811 5812 5812 5813 5813 5815 5816 5816 5816 5817 5817 5817 5817 5817 5817 5817 5817 5817 5817 5817 5818 5818 5819 5819 5819 5819 5818 5818 5818 5818 5817 5817 5816 5816 5815
5794 5794 5794 5794 5794 5794 5794 5795 5795 5796 5796 5797 5799 5799 5799 5800 5801 5802 5803 5805 5806 5807 5807 5808 5808 5808 5809 5809 5810 5811 5811 5812 5813 5814 5814 5814 5815 5816 5816 5816 5816 5816 5816 5816 5816 5816 5817 5817 5818 5818 5818 5818 5818 5818 5818 5818 5817 5817 5816 5815 5815 5814
5789 5790 5792 5792 5792 5792 5792 5792 5793 5794 5794 5794 5795 5796 5797 5798 5799 5801 5802 5803 5804 5805 5806 5806 5806 5807 5807 5807 5808 5809 5810 5810 5812 5812 5812 5813 5814 5815 5815 5815 5815 5816 5815 5815 5815 5815 5816 5816 5817 5817 5817 5817 5817 5817 5817 5817 5817 5816 5815 5815 5814 5813
5787 5789 5791 5791 5791 5791 5790 5790 5792 5793 5792 5792 5793 5794 5795 5796 5797 5799 5800 5801 5802 5803 5803 5804 5805 5805 5805 5806 5807 5808 5808 5809 5810 5811 5811 5812 5812 5813 5814 5814 5815 5815 5814 5814 5814 5815 5815 5815 5816 5816 5816 5816 5816 5816 5816 5816 5816 5815 5815 5814 5813 5813
5786 5788 5790 5790 5791 5790 5789 5789 5790 5791 5791 5791 5791 5792 5794 5795 5796 5797 5798 5799 5800 5801 5801 5802 5803 5803 5803 5804 5805 5806 5807 5808 5809 5810 5810 5810 5811 5812 5813 5813 5814 5814 5814 5813 5814 5814 5814 5815 5815 5815 5815 5815 5815 5815 5815 5815 5815 5815 5814 5813 5812 5812
5785 5786 5787 5788 5789 5788 5788 5789 5790 5790 5790 5790 5790 5791 5792 5794 5794 5795 5797 5798 5798 5798 5799 5800 5801 5802 5802 5803 5804 5805 5806 5807 5807 5808 5809 5809 5809 5810 5811 5812 5813 5813 5813 5813 5813 5813 5814 5814 5814 5814 5814 5814 5815 5815 5815 5815 5815 5814 5813 5813 5812 5812
5783 5784 5784 5785 5787 5787 5788 5789 5789 5789 5789 5789 5789 5789 5791 5792 5792 5793 5795 5796 5796 5796 5797 5798 5800 5801 5801 5801 5802 5804 5805 5805 5806 5806 5807 5807 5807 5808 5810 5811 5812 5812 5812 5813 5813 5813 5813 5814 5814 5814 5814 5814 5814 5814 5814 5814 5814 5813 5813 5812 5812 5812
5782 5783 5783 5784 5785 5787 5788 5787 5786 5787 5787 5787 5788 5788 5789 5789 5790 5792 5793 5793 5794 5794 5795 5797 5798 5799 5800 5800 5801 5802 5803 5803 5804 5804 5805 5804 5805 5806 5808 5809 5810 5811 5811 5811 5812 5812 5812 5813 5813 5813 5813 5813 5813 5813 5813 5813 5813 5812 5812 5811 5811 5811
5780 5781 5783 5783 5785 5786 5787 5787 5786 5785 5785 5786 5786 5787 5787 5787 5788 5789 5790 5791 5791 5791 5793 5794 5796 5798 5799 5799 5799 5800 5801 5801 5802 5802 5803 5803 5803 5804 5806 5807 5808 5809 5810 5810 5810 5811 5811 5811 5812 5812 5812 5812 5811 5812 5812 5812 5812 5811 5811 5811 5811 5811
5778 5779 5780 5781 5783 5785 5785 5786 5785 5784 5784 5784 5784 5785 5785 5785 5785 5786 5787 5787 5788 5789 5790 5792 5794 5795 5796 5797 5797 5798 5799 5799 5800 5801 5802 5802 5801 5802 5803 5804 5805 5807 5808 5809 5809 5810 5810 5811 5811 5811 5810 5810 5810 5810 5810 5811 5811 5811 5811 5810 5811 5811
5776 5777 5778 5779 5780 5782 5783 5783 5784 5783 5783 5783 5782 5782 5782 5782 5782 5783 5784 5785 5785 5786 5787 5789 5791 5792 5793 5794 5795 5796 5796 5797 5799 5800 5800 5800 5800 5801 5801 5802 5803 5804 5806 5808 5808 5809 5809 5809 5809 5809 5809 5809 5809 5809 5809 5810 5810 5810 5810 5810 5810 5811
5774 5775 5776 5776 5777 5779 5780 5781 5781 5781 5781 5781 5780 5780 5780 5780 5780 5781 5782 5783 5783 5784 5785 5786 5788 5789 5790 5791 5792 5793 5794 5795 5797 5798 5799 5799 5799 5799 5799 5800 5800 5802 5804 5806 5807 5807 5807 5808 5808 5807 5807 5807 5807 5808 5808 5809 5809 5809 5810 5810 5810 5810
5773 5773 5774 5774 5775 5775 5777 5777 5778 5778 5778 5779 5779 5779 5779 5779 5779 5780 5780 5781 5781 5782 5783 5783 5784 5785 5786 5788 5789 5791 5792 5793 5794 5796 5797 5797 5797 5797 5797 5798 5799 5801 5803 5804 5805 5805 5806 5806 5806 5806 5806 5806 5806 5807 5807 5807 5808 5808 5809 5809 5809 5809
5770 5771 5772 5772 5772 5772 5772 5774 5775 5776 5777 5777 5778 5778 5778 5778 5779 5779 5780 5780 5780 5780 5781 5781 5782 5783 5784 5784 5786 5787 5789 5790 5792 5793 5794 5795 5795 5795 5796 5797 5798 5799 5801 5802 5803 5803 5804 5804 5804 5804 5804 5805 5805 5806 5806 5806 5806 5807 5807 5808 5808 5808
5767 5769 5769 5768 5768 5769 5768 5769 5771 5773 5774 5775 5776 5777 5777 5776 5777 5777 5778 5778 5779 5779 5779 5779 5780 5781 5781 5782 5783 5784 5786 5787 5789 5790 5791 5792 5793 5794 5794 5795 5796 5798 5799 5800 5801 5801 5802 5802 5802 5802 5803 5804 5804 5804 5805 5805 5805 5805 5806 5807 5807 5807
5763 5764 5765 5764 5764 5764 5765 5765 5767 5769 5771 5772 5773 5773 5773 5773 5773 5774 5775 5776 5777 5777 5778 5778 5778 5779 5779 5780 5781 5782 5783 5784 5786 5788 5789 5790 5791 5792 5793 5794 5795 5796 5797 5798 5798 5799 5800 5800 5800 5801 5801 5802 5802 5803 5803 5804 5804 5804 5804 5805 5806 5806
5758 5759 5760 5761 5760 5760 5761 5761 5762 5764 5765 5767 5768 5768 5769 5769 5769 5771 5772 5773 5774 5776 5777 5777 5776 5776 5777 5777 5778 5779 5780 5781 5783 5784 5786 5787 5788 5790 5791 5792 5793 5794 5794 5795 5796 5797 5798 5798 5799 5799 5800 5800 5801 5801 5802 5802 5802 5803 5803 5804 5804 5804
5754 5755 5757 5758 5758 5757 5757 5757 5757 5758 5760 5761 5762 5763 5764 5764 5766 5767 5769 5770 5771 5772 5774 5774 5773 5774 5774 5774 5774 5776 5777 5778 5779 5781 5782 5784 5786 5787 5789 5790 5791 5791 5792 5793 5794 5795 5795 5796 5797 5797 5798 5799 5799 5800 5800 5800 5801 5801 5801 5802 5802 5803
5750 5752 5753 5755 5756 5756 5755 5754 5753 5754 5755 5756 5757 5758 5759 5760 5762 5764 5765 5767 5767 5768 5770 5771 5771 5771 5771 5771 5771 5773 5774 5775 5776 5778 5780 5781 5783 5785 5786 5787 5788 5789 5790 5791 5792 5792 5793 5794 5795 5795 5796 5797 5797 5798 5799 5799 5799 5799 5800 5800 5801 5801
5747 5748 5749 5751 5752 5753 5752 5751 5752 5754 5753 5753 5754 5755 5755 5756 5758 5760 5762 5763 5764 5765 5766 5767 5768 5768 5769 5768 5769 5770 5772 5773 5774 5775 5777 5778 5780 5782 5783 5784 5786 5787 5788 5789 5789 5790 5791 5792 5792 5793 5794 5795 5796 5796 5797 5797 5798 5798 5798 5799 5799 5799
5744 5745 5746 5747 5748 5748 5748 5749 5752 5753 5752 5751 5752 5752 5753 5754 5755 5757 5759 5760 5762 5762 5763 5764 5764 5764 5765 5765 5766 5769 5771 5771 5772 5773 5774 5776 5778 5779 5781 5782 5783 5785 5786 5786 5787 5788 5789 5790 5790 5791 5792 5793 5794 5794 5795 5796 5796 5796 5797 5797 5797 5798
5741 5742 5743 5743 5743 5743 5743 5744 5748 5749 5748 5748 5749 5750 5752 5752 5751 5754 5756 5757 5758 5759 5759 5760 5761 5761 5762 5763 5765 5766 5768 5769 5769 5770 5771 5773 5775 5776 5778 5779 5781 5782 5783 5784 5785 5786 5787 5788 5788 5789 5790 5791 5792 5793 5793 5794 5794 5795 5795 5795 5796 5796